MST,Max TemperatureF,Mean TemperatureF,Min TemperatureF,Max Dew PointF,MeanDew PointF,Min DewpointF,Max Humidity, Mean Humidity, Min Humidity, Max Sea Level PressureIn, Mean Sea Level PressureIn, Min Sea Level PressureIn, Max VisibilityMiles, Mean VisibilityMiles, Min VisibilityMiles, Max Wind SpeedMPH, Mean Wind SpeedMPH, Max Gust SpeedMPH,PrecipitationIn, CloudCover, Events, WindDirDegrees
2013-2-1,38,29,19,31,29,15,100,80,59,30.27,30.05,29.94,10,6,0,23,9,33,0.02,7,Fog-Snow,270
2013-2-2,35,27,18,26,20,13,77,70,63,30.38,30.29,30.17,10,10,10,21,13,24,0.00,0,,239
2013-2-3,42,31,19,25,20,15,77,60,43,30.14,29.99,29.93,10,10,10,22,12,28,0.00,0,,236
2013-2-4,41,33,25,28,25,17,78,66,54,29.94,29.87,29.79,10,10,10,24,11,30,0.00,6,,261
2013-2-5,43,34,24,29,25,20,78,66,53,29.95,29.85,29.75,10,10,10,24,9,31,T,4,,227
2013-2-6,39,31,22,25,20,15,78,61,44,30.09,29.93,29.77,10,10,10,24,9,29,0.00,1,,250
2013-2-7,39,29,19,22,16,10,73,57,40,30.10,30.01,29.94,10,10,10,18,6,22,0.00,1,,140
2013-2-8,38,27,16,22,17,10,81,67,52,30.02,29.99,29.96,10,10,10,9,3,18,0.00,2,,142
2013-2-9,36,25,13,25,21,10,92,70,47,30.00,29.92,29.85,10,6,1,17,5,21,0.02,5,Snow,304
2013-2-10,26,15,4,22,15,4,92,83,73,30.25,30.07,29.92,10,4,0,25,12,33,T,7,Fog-Snow,305
2013-2-11,35,18,0,20,8,-4,87,64,41,30.22,30.08,30.01,10,10,10,12,5,13,0.00,0,,162
2013-2-12,37,28,18,27,21,12,75,67,59,30.09,30.01,29.84,10,10,10,29,12,33,0.00,4,,243
2013-2-13,40,31,22,29,25,19,100,74,48,30.23,30.00,29.84,10,5,0,30,16,38,0.06,7,Fog-Snow,301
2013-2-14,27,21,14,21,16,7,92,69,46,30.45,30.30,30.15,10,6,1,22,6,26,0.02,6,Snow,269
2013-2-15,36,26,15,22,19,11,88,71,54,30.45,30.32,30.18,10,10,2,18,9,21,T,3,Snow,232
2013-2-16,45,37,28,29,26,22,75,64,53,30.16,29.95,29.66,10,10,10,20,13,23,0.00,0,,235
2013-2-17,38,32,25,31,26,21,100,77,54,30.06,29.80,29.65,10,5,0,32,15,40,0.07,8,Fog-Snow,305
2013-2-18,30,24,17,21,17,11,92,71,50,30.19,30.08,29.97,10,8,1,18,9,23,0.01,5,Snow,273
2013-2-19,27,20,12,18,13,7,88,76,63,30.01,29.89,29.80,10,10,10,21,11,24,0.00,3,,116
2013-2-20,21,14,6,18,14,5,96,90,83,29.99,29.89,29.79,10,5,0,8,2,9,0.01,7,Fog-Snow,224
2013-2-21,31,20,9,17,12,7,100,74,47,30.04,29.98,29.85,10,10,10,14,5,15,0.00,3,,175
2013-2-22,35,26,17,22,16,10,74,65,56,29.97,29.81,29.58,10,10,10,26,13,32,0.00,3,,224
2013-2-23,36,31,25,25,21,15,81,64,47,30.05,29.78,29.56,10,10,8,24,14,31,T,6,Snow,279
2013-2-24,34,24,14,18,14,10,88,67,45,30.20,30.12,30.01,10,10,10,17,10,20,0.00,0,,222
2013-2-25,38,29,20,23,19,12,75,64,52,30.00,29.89,29.80,10,10,10,23,12,30,0.00,2,,239
2013-2-26,30,23,16,23,18,12,84,76,68,30.29,30.13,29.92,10,10,10,14,10,20,0.00,4,,272
2013-2-27,35,23,11,20,13,7,88,64,40,30.34,30.28,30.23,10,10,10,13,5,13,0.00,2,,178
2013-2-28,40,29,17,23,18,10,81,66,50,30.32,30.26,30.23,10,10,10,22,8,28,0.00,4,,260